.
WxDataArchive / Data Records for 2011-01-03
2011-01-02 January 2011 2011-01-04

Data Records for Monday, 03 January 2011

Time	Temp	Chill	HIndex	Humid	Dewpt	 Wind 	HiWind	WindDir	Rain 	Barom 
-----	----	-----	------	-----	-----	------	------	-------	-----	----- 
00:00	20.5	20.5	20.5	69	12.0	1	5	270	0.00	30.264 
00:05	20.5	20.5	20.5	69	12.0	1	3	270	0.00	30.264 
00:10	20.6	20.6	20.6	69	12.1	1	4	248	0.00	30.264 
00:15	20.6	20.6	20.6	68	11.7	1	3	248	0.00	30.262 
00:20	20.6	20.6	20.6	68	11.7	0	2	248	0.00	30.262 
00:25	20.6	20.6	20.6	68	11.7	1	2	248	0.00	30.262 
00:30	20.6	20.6	20.6	68	11.7	1	3	248	0.00	30.254 
00:35	20.6	20.6	20.6	68	11.7	1	4	248	0.00	30.254 
00:40	20.8	20.8	20.8	68	11.9	1	4	248	0.00	30.254 
00:45	20.8	20.8	20.8	68	11.9	1	6	248	0.00	30.253 
00:50	20.8	20.8	20.8	68	11.9	1	4	248	0.00	30.253 
00:55	20.8	20.8	20.8	68	11.9	1	4	248	0.00	30.253 
01:00	21.0	21.0	21.0	68	12.1	1	4	248	0.00	30.250 
01:05	20.8	20.8	20.8	68	11.9	1	5	248	0.00	30.250 
01:10	20.8	20.8	20.8	68	11.9	1	3	248	0.00	30.250 
01:15	20.8	20.8	20.8	68	11.9	0	2	248	0.00	30.244 
01:20	20.6	20.6	20.6	68	11.7	1	3	248	0.00	30.244 
01:25	20.6	20.6	20.6	68	11.7	1	4	225	0.00	30.244 
01:30	20.6	20.6	20.6	69	12.1	1	3	225	0.00	30.247 
01:35	20.5	20.5	20.5	69	12.0	0	3	225	0.00	30.247 
01:40	20.3	20.3	20.3	69	11.8	0	2	270	0.00	30.247 
01:45	20.3	20.3	20.3	69	11.8	0	3	270	0.00	30.246 
01:50	20.2	20.2	20.2	70	12.0	0	2	270	0.00	30.246 
01:55	20.0	20.0	20.0	70	11.8	1	2	270	0.00	30.246 
02:00	19.9	19.9	19.9	71	12.0	0	2	270	0.00	30.245 
02:05	19.9	19.9	19.9	71	12.0	1	3	248	0.00	30.245 
02:10	19.9	19.9	19.9	71	12.0	0	2	248	0.00	30.245 
02:15	19.7	19.7	19.7	71	11.8	0	2	248	0.00	30.238 
02:20	19.7	19.7	19.7	72	12.2	0	3	248	0.00	30.238 
02:25	19.5	19.5	19.5	72	12.0	0	3	248	0.00	30.238 
02:30	19.5	19.5	19.5	72	12.0	0	2	248	0.00	30.240 
02:35	19.5	19.5	19.5	72	12.0	0	2	248	0.00	30.240 
02:40	19.5	19.5	19.5	73	12.3	1	3	248	0.00	30.240 
02:45	19.5	19.5	19.5	73	12.3	1	3	248	0.00	30.242 
02:50	19.5	19.5	19.5	73	12.3	1	2	248	0.00	30.242 
02:55	19.5	19.5	19.5	73	12.3	1	3	248	0.00	30.242 
03:00	19.5	19.5	19.5	73	12.3	0	2	248	0.00	30.235 
03:05	19.5	19.5	19.5	73	12.3	0	2	248	0.00	30.235 
03:10	19.5	19.5	19.5	73	12.3	1	4	248	0.00	30.235 
03:15	19.5	19.5	19.5	73	12.3	0	2	248	0.00	30.233 
03:20	19.4	19.4	19.4	74	12.5	0	1	248	0.00	30.233 
03:25	19.4	19.4	19.4	74	12.5	0	3	270	0.00	30.233 
03:30	19.4	19.4	19.4	74	12.5	0	4	225	0.00	30.231 
03:35	19.4	19.4	19.4	74	12.5	0	3	225	0.00	30.231 
03:40	19.4	19.4	19.4	74	12.5	0	2	225	0.00	30.231 
03:45	19.4	19.4	19.4	75	12.8	0	4	248	0.00	30.227 
03:50	19.4	19.4	19.4	75	12.8	0	2	248	0.00	30.227 
03:55	19.4	19.4	19.4	75	12.8	0	2	248	0.00	30.227 
04:00	19.4	19.4	19.4	75	12.8	0	2	248	0.00	30.220 
04:05	19.4	19.4	19.4	75	12.8	0	2	248	0.00	30.220 
04:10	19.5	19.5	19.5	75	12.9	0	2	248	0.00	30.220 
04:15	19.5	19.5	19.5	75	12.9	0	2	248	0.00	30.215 
04:20	19.5	19.5	19.5	75	12.9	0	2	248	0.00	30.215 
04:25	19.5	19.5	19.5	75	12.9	0	3	248	0.00	30.215 
04:30	19.7	19.7	19.7	75	13.1	0	3	248	0.00	30.212 
04:35	19.7	19.7	19.7	75	13.1	0	5	248	0.00	30.212 
04:40	19.7	19.7	19.7	75	13.1	0	2	248	0.00	30.212 
04:45	19.9	19.9	19.9	75	13.3	1	3	248	0.00	30.207 
04:50	19.9	19.9	19.9	75	13.3	0	4	248	0.00	30.207 
04:55	19.9	19.9	19.9	75	13.3	0	3	248	0.00	30.207 
05:00	20.0	20.0	20.0	75	13.4	0	2	248	0.00	30.201 
05:05	20.0	20.0	20.0	74	13.1	0	3	248	0.00	30.201 
05:10	20.0	20.0	20.0	74	13.1	0	3	248	0.00	30.201 
05:15	20.2	20.2	20.2	74	13.3	0	3	248	0.00	30.200 
05:20	20.2	20.2	20.2	74	13.3	1	3	248	0.00	30.200 
05:25	20.3	20.3	20.3	73	13.1	0	3	248	0.00	30.200 
05:30	20.3	20.3	20.3	73	13.1	1	3	248	0.00	30.199 
05:35	20.5	20.5	20.5	73	13.2	2	5	248	0.00	30.199 
05:40	20.6	20.6	20.6	72	13.0	0	4	248	0.00	30.199 
05:45	20.8	20.8	20.8	72	13.2	1	4	248	0.00	30.200 
05:50	20.8	20.8	20.8	72	13.2	1	3	248	0.00	30.200 
05:55	20.8	20.8	20.8	71	12.9	1	4	225	0.00	30.200 
06:00	21.0	21.0	21.0	71	13.1	1	3	248	0.00	30.199 
06:05	21.0	21.0	21.0	70	12.8	2	4	248	0.00	30.199 
06:10	21.1	21.1	21.1	70	12.9	1	5	248	0.00	30.199 
06:15	21.1	21.1	21.1	70	12.9	1	5	225	0.00	30.196 
06:20	21.1	21.1	21.1	70	12.9	2	5	225	0.00	30.196 
06:25	21.1	21.1	21.1	69	12.5	1	5	225	0.00	30.196 
06:30	21.3	21.3	21.3	69	12.7	1	6	248	0.00	30.193 
06:35	21.3	21.3	21.3	69	12.7	1	3	248	0.00	30.193 
06:40	21.3	21.3	21.3	69	12.7	1	6	248	0.00	30.193 
06:45	21.3	21.3	21.3	69	12.7	1	6	202	0.00	30.196 
06:50	21.3	21.3	21.3	69	12.7	1	3	248	0.00	30.196 
06:55	21.3	21.3	21.3	69	12.7	1	5	248	0.00	30.196 
07:00	21.4	21.4	21.4	69	12.8	1	3	248	0.00	30.198 
07:05	21.4	21.4	21.4	69	12.8	1	4	225	0.00	30.198 
07:10	21.4	21.4	21.4	69	12.8	1	4	225	0.00	30.198 
07:15	21.4	21.4	21.4	69	12.8	1	3	248	0.00	30.199 
07:20	21.6	21.6	21.6	69	13.0	1	4	248	0.00	30.199 
07:25	21.6	21.6	21.6	69	13.0	1	5	248	0.00	30.199 
07:30	21.8	21.8	21.8	69	13.2	1	4	248	0.00	30.198 
07:35	21.8	21.8	21.8	69	13.2	1	5	270	0.00	30.198 
07:40	21.8	21.8	21.8	69	13.2	1	4	248	0.00	30.198 
07:45	21.8	21.8	21.8	69	13.2	1	3	225	0.00	30.202 
07:50	21.8	21.8	21.8	69	13.2	1	4	248	0.00	30.202 
07:55	21.8	21.8	21.8	69	13.2	0	3	248	0.00	30.202 
08:00	21.6	21.6	21.6	69	13.0	1	3	248	0.00	30.200 
08:05	21.6	21.6	21.6	69	13.0	0	3	202	0.00	30.200 
08:10	21.6	21.6	21.6	69	13.0	0	2	202	0.00	30.200 
08:15	21.6	21.6	21.6	69	13.0	0	2	248	0.00	30.202 
08:20	21.6	21.6	21.6	69	13.0	1	3	248	0.00	30.202 
08:25	21.8	21.8	21.8	69	13.2	1	3	248	0.00	30.202 
08:30	21.8	21.8	21.8	69	13.2	1	3	248	0.00	30.200 
08:35	21.9	21.9	21.9	69	13.3	1	3	248	0.00	30.200 
08:40	22.1	22.1	22.1	69	13.5	1	4	248	0.00	30.200 
08:45	22.2	22.2	22.2	69	13.6	1	3	225	0.00	30.195 
08:50	22.4	22.4	22.4	69	13.8	1	4	248	0.00	30.195 
08:55	22.5	22.5	22.5	69	13.9	1	4	248	0.00	30.195 
09:00	22.9	22.9	22.9	69	14.3	1	5	248	0.00	30.194 
09:05	23.0	23.0	23.0	68	14.0	1	5	248	0.00	30.194 
09:10	23.3	23.3	23.3	67	14.0	2	6	248	0.00	30.194 
09:15	23.6	23.6	23.6	67	14.3	1	3	248	0.00	30.194 
09:20	23.8	23.8	23.8	67	14.5	2	5	248	0.00	30.194 
09:25	24.1	24.1	24.1	66	14.4	2	6	225	0.00	30.194 
09:30	24.4	24.4	24.4	66	14.7	2	6	225	0.00	30.195 
09:35	24.7	24.7	24.7	65	14.6	2	6	270	0.00	30.195 
09:40	24.8	24.8	24.8	65	14.7	2	5	248	0.00	30.195 
09:45	25.3	25.3	25.3	65	15.2	1	4	248	0.00	30.191 
09:50	25.6	25.6	25.6	64	15.1	2	5	248	0.00	30.191 
09:55	25.7	25.7	25.7	63	14.9	2	6	248	0.00	30.191 
10:00	26.0	26.0	26.0	63	15.2	2	7	225	0.00	30.192 
10:05	26.4	26.4	26.4	62	15.2	2	5	248	0.00	30.192 
10:10	26.7	26.7	26.7	62	15.5	2	7	270	0.00	30.192 
10:15	27.0	27.0	27.0	61	15.4	2	7	248	0.00	30.197 
10:20	27.2	27.2	27.2	61	15.6	2	6	248	0.00	30.197 
10:25	27.5	27.5	27.5	60	15.5	2	9	248	0.00	30.197 
10:30	27.8	27.8	27.8	59	15.4	2	6	248	0.00	30.196 
10:35	28.1	28.1	28.1	59	15.6	2	7	248	0.00	30.196 
10:40	28.4	28.4	28.4	58	15.5	3	9	248	0.00	30.196 
10:45	28.7	28.7	28.7	58	15.8	3	6	248	0.00	30.196 
10:50	29.0	29.0	29.0	58	16.1	1	5	270	0.00	30.196 
10:55	29.3	29.3	29.3	57	16.0	3	7	248	0.00	30.196 
11:00	29.3	25.0	29.3	57	16.0	4	8	248	0.00	30.196 
11:05	29.5	29.5	29.5	57	16.2	2	7	225	0.00	30.196 
11:10	29.8	29.8	29.8	57	16.4	3	10	248	0.00	30.196 
11:15	30.1	30.1	30.1	56	16.3	3	7	248	0.00	30.193 
11:20	30.4	30.4	30.4	56	16.6	2	7	248	0.00	30.193 
11:25	30.7	30.7	30.7	55	16.5	3	9	248	0.00	30.193 
11:30	30.9	30.9	30.9	55	16.7	2	7	248	0.00	30.180 
11:35	31.2	31.2	31.2	54	16.5	3	7	248	0.00	30.180 
11:40	31.2	27.2	31.2	54	16.5	4	7	248	0.00	30.180 
11:45	31.3	31.3	31.3	54	16.6	3	7	248	0.00	30.177 
11:50	31.6	31.6	31.6	54	16.9	2	6	248	0.00	30.177 
11:55	31.9	31.9	31.9	53	16.7	3	11	248	0.00	30.177 
12:00	32.1	32.1	32.1	53	16.9	3	9	248	0.00	30.170 
12:05	32.4	32.4	32.4	54	17.6	3	10	248	0.00	30.170 
12:10	32.4	32.4	32.4	53	17.2	3	9	248	0.00	30.170 
12:15	32.7	32.7	32.7	52	17.0	3	6	248	0.00	30.160 
12:20	32.8	32.8	32.8	53	17.6	2	5	248	0.00	30.160 
12:25	33.2	33.2	33.2	52	17.5	2	8	248	0.00	30.160 
12:30	33.5	33.5	33.5	51	17.3	2	5	270	0.00	30.152 
12:35	33.7	33.7	33.7	50	17.1	3	6	248	0.00	30.152 
12:40	33.8	33.8	33.8	50	17.2	3	7	248	0.00	30.152 
12:45	34.0	34.0	34.0	50	17.3	2	5	248	0.00	30.146 
12:50	34.3	34.3	34.3	50	17.6	2	9	248	0.00	30.146 
12:55	34.3	34.3	34.3	50	17.6	3	9	248	0.00	30.146 
13:00	34.6	34.6	34.6	50	17.9	3	7	248	0.00	30.141 
13:05	34.4	30.8	34.4	49	17.2	4	10	248	0.00	30.141 
13:10	34.4	34.4	34.4	49	17.2	3	9	248	0.00	30.141 
13:15	34.6	34.6	34.6	49	17.4	3	7	248	0.00	30.130 
13:20	34.6	31.1	34.6	50	17.9	4	10	248	0.00	30.130 
13:25	34.9	34.9	34.9	49	17.7	3	11	248	0.00	30.130 
13:30	34.9	31.4	34.9	49	17.7	4	9	248	0.00	30.127 
13:35	35.2	35.2	35.2	49	18.0	2	7	248	0.00	30.127 
13:40	35.3	35.3	35.3	49	18.1	2	7	248	0.00	30.127 
13:45	35.5	35.5	35.5	49	18.3	2	7	248	0.00	30.113 
13:50	35.5	35.5	35.5	49	18.3	3	9	248	0.00	30.113 
13:55	35.8	35.8	35.8	49	18.5	2	6	225	0.00	30.113 
14:00	36.0	36.0	36.0	48	18.2	2	5	248	0.00	30.113 
14:05	36.2	36.2	36.2	47	17.9	3	7	248	0.00	30.113 
14:10	36.2	36.2	36.2	47	17.9	3	12	225	0.00	30.113 
14:15	36.2	32.9	36.2	47	17.9	4	10	248	0.00	30.109 
14:20	36.2	36.2	36.2	47	17.9	3	11	248	0.00	30.109 
14:25	36.3	36.3	36.3	48	18.5	3	6	248	0.00	30.109 
14:30	36.5	36.5	36.5	48	18.7	2	6	248	0.00	30.109 
14:35	36.6	36.6	36.6	48	18.8	2	6	248	0.00	30.109 
14:40	36.8	36.8	36.8	48	19.0	3	7	248	0.00	30.109 
14:45	36.9	36.9	36.9	48	19.1	2	6	248	0.00	30.105 
14:50	36.9	36.9	36.9	47	18.6	2	5	248	0.00	30.105 
14:55	36.9	36.9	36.9	48	19.1	3	7	248	0.00	30.105 
15:00	37.0	37.0	37.0	48	19.2	2	5	248	0.00	30.106 
15:05	37.0	37.0	37.0	47	18.7	3	11	248	0.00	30.106 
15:10	37.0	37.0	37.0	49	19.6	2	9	225	0.00	30.106 
15:15	37.0	37.0	37.0	49	19.6	2	6	248	0.00	30.097 
15:20	37.3	37.3	37.3	47	18.9	3	7	248	0.00	30.097 
15:25	37.3	37.3	37.3	47	18.9	2	6	248	0.00	30.097 
15:30	37.3	37.3	37.3	48	19.4	3	9	248	0.00	30.095 
15:35	37.6	37.6	37.6	47	19.2	3	10	248	0.00	30.095 
15:40	37.9	37.9	37.9	47	19.5	2	5	248	0.00	30.095 
15:45	38.0	38.0	38.0	47	19.6	2	9	225	0.00	30.095 
15:50	37.9	37.9	37.9	48	20.0	2	5	225	0.00	30.095 
15:55	37.6	37.6	37.6	49	20.2	2	6	248	0.00	30.095 
16:00	37.3	37.3	37.3	48	19.4	2	6	248	0.00	30.095 
16:05	36.9	36.9	36.9	49	19.5	3	7	248	0.00	30.095 
16:10	36.5	36.5	36.5	50	19.6	2	7	248	0.00	30.095 
16:15	36.2	36.2	36.2	51	19.8	3	7	248	0.00	30.095 
16:20	36.2	36.2	36.2	52	20.3	1	6	248	0.00	30.095 
16:25	36.0	36.0	36.0	52	20.1	1	4	248	0.00	30.095 
16:30	36.0	36.0	36.0	52	20.1	1	4	225	0.00	30.092 
16:35	35.9	35.9	35.9	52	20.0	2	7	248	0.00	30.092 
16:40	35.9	35.9	35.9	52	20.0	2	5	248	0.00	30.092 
16:45	35.8	35.8	35.8	53	20.4	1	3	248	0.00	30.088 
16:50	35.6	35.6	35.6	53	20.2	1	5	248	0.00	30.088 
16:55	35.6	35.6	35.6	53	20.2	2	5	248	0.00	30.088 
17:00	35.5	35.5	35.5	53	20.1	2	6	248	0.00	30.088 
17:05	35.5	35.5	35.5	53	20.1	2	5	248	0.00	30.088 
17:10	35.5	35.5	35.5	54	20.5	1	5	248	0.00	30.088 
17:15	35.3	35.3	35.3	54	20.3	2	6	248	0.00	30.082 
17:20	35.2	35.2	35.2	54	20.2	1	7	248	0.00	30.082 
17:25	34.9	34.9	34.9	55	20.4	1	5	248	0.00	30.082 
17:30	34.9	34.9	34.9	55	20.4	2	5	248	0.00	30.092 
17:35	34.7	34.7	34.7	55	20.2	1	3	248	0.00	30.092 
17:40	34.6	34.6	34.6	56	20.5	1	4	248	0.00	30.092 
17:45	34.4	34.4	34.4	56	20.3	1	4	248	0.00	30.091 
17:50	34.3	34.3	34.3	56	20.3	1	4	248	0.00	30.091 
17:55	34.3	34.3	34.3	57	20.7	1	2	248	0.00	30.091 
18:00	34.3	34.3	34.3	57	20.7	1	4	248	0.00	30.088 
18:05	34.1	34.1	34.1	57	20.5	0	2	248	0.00	30.088 
18:10	34.0	34.0	34.0	58	20.8	0	3	248	0.00	30.088 
18:15	34.0	34.0	34.0	58	20.8	1	3	248	0.00	30.088 
18:20	33.8	33.8	33.8	58	20.6	0	2	248	0.00	30.088 
18:25	33.7	33.7	33.7	58	20.5	0	2	248	0.00	30.088 
18:30	33.5	33.5	33.5	59	20.7	1	4	248	0.00	30.084 
18:35	33.5	33.5	33.5	59	20.7	1	3	248	0.00	30.084 
18:40	33.5	33.5	33.5	59	20.7	1	5	248	0.00	30.084 
18:45	33.4	33.4	33.4	59	20.6	1	4	248	0.00	30.081 
18:50	33.2	33.2	33.2	59	20.4	1	4	248	0.00	30.081 
18:55	33.2	33.2	33.2	59	20.4	1	3	248	0.00	30.081 
19:00	33.2	33.2	33.2	59	20.4	1	4	248	0.00	30.078 
19:05	33.2	33.2	33.2	59	20.4	1	4	248	0.00	30.078 
19:10	33.1	33.1	33.1	59	20.4	1	4	248	0.00	30.078 
19:15	33.1	33.1	33.1	59	20.4	1	4	248	0.00	30.079 
19:20	33.1	33.1	33.1	59	20.4	1	4	225	0.00	30.079 
19:25	33.1	33.1	33.1	59	20.4	1	3	225	0.00	30.079 
19:30	33.1	33.1	33.1	59	20.4	1	4	225	0.00	30.079 
19:35	32.9	32.9	32.9	59	20.2	1	4	225	0.00	30.079 
19:40	32.9	32.9	32.9	59	20.2	1	4	248	0.00	30.079 
19:45	32.9	32.9	32.9	59	20.2	1	4	248	0.00	30.071 
19:50	32.9	32.9	32.9	59	20.2	1	5	225	0.00	30.071 
19:55	32.9	32.9	32.9	59	20.2	1	4	248	0.00	30.071 
20:00	32.9	32.9	32.9	59	20.2	1	5	248	0.00	30.065 
20:05	32.9	32.9	32.9	58	19.8	1	5	225	0.00	30.065 
20:10	32.9	32.9	32.9	58	19.8	1	4	248	0.00	30.065 
20:15	32.9	32.9	32.9	58	19.8	1	9	248	0.00	30.061 
20:20	33.1	33.1	33.1	58	20.0	2	5	248	0.00	30.061 
20:25	33.2	33.2	33.2	57	19.6	1	6	270	0.00	30.061 
20:30	33.2	33.2	33.2	57	19.6	1	4	248	0.00	30.056 
20:35	33.4	33.4	33.4	57	19.8	2	8	248	0.00	30.056 
20:40	33.5	33.5	33.5	57	19.9	1	6	315	0.00	30.056 
20:45	33.5	33.5	33.5	56	19.5	2	5	248	0.00	30.051 
20:50	33.5	33.5	33.5	56	19.5	1	5	225	0.00	30.051 
20:55	33.5	33.5	33.5	56	19.5	1	6	248	0.00	30.051 
21:00	33.5	33.5	33.5	57	19.9	1	6	248	0.00	30.055 
21:05	33.4	33.4	33.4	57	19.8	0	3	248	0.00	30.055 
21:10	33.1	33.1	33.1	58	20.0	1	5	270	0.00	30.055 
21:15	33.1	33.1	33.1	58	20.0	1	3	270	0.00	30.046 
21:20	32.9	32.9	32.9	59	20.2	1	3	90	0.00	30.046 
21:25	32.8	32.8	32.8	59	20.1	1	3	248	0.00	30.046 
21:30	32.8	32.8	32.8	59	20.1	1	5	248	0.00	30.045 
21:35	32.8	32.8	32.8	58	19.7	1	4	248	0.00	30.045 
21:40	32.9	32.9	32.9	58	19.8	2	4	248	0.00	30.045 
21:45	33.1	33.1	33.1	57	19.5	2	5	248	0.00	30.047 
21:50	33.1	33.1	33.1	58	20.0	1	4	248	0.00	30.047 
21:55	33.1	33.1	33.1	57	19.5	1	4	248	0.00	30.047 
22:00	33.1	33.1	33.1	57	19.5	2	5	248	0.00	30.045 
22:05	32.9	32.9	32.9	58	19.8	1	4	248	0.00	30.045 
22:10	32.9	32.9	32.9	57	19.4	2	9	248	0.00	30.045 
22:15	32.9	32.9	32.9	57	19.4	2	6	248	0.00	30.041 
22:20	32.9	32.9	32.9	57	19.4	2	4	248	0.00	30.041 
22:25	32.8	32.8	32.8	57	19.3	1	4	248	0.00	30.041 
22:30	32.9	32.9	32.9	57	19.4	2	5	248	0.00	30.036 
22:35	32.8	32.8	32.8	57	19.3	1	4	248	0.00	30.036 
22:40	32.8	32.8	32.8	57	19.3	1	4	248	0.00	30.036 
22:45	32.8	32.8	32.8	57	19.3	2	6	225	0.00	30.033 
22:50	32.7	32.7	32.7	57	19.2	1	6	248	0.00	30.033 
22:55	32.7	32.7	32.7	58	19.6	1	4	248	0.00	30.033 
23:00	32.5	32.5	32.5	58	19.4	2	6	225	0.00	30.032 
23:05	32.5	32.5	32.5	58	19.4	1	4	248	0.00	30.032 
23:10	32.4	32.4	32.4	58	19.3	1	3	248	0.00	30.032 
23:15	32.4	32.4	32.4	58	19.3	1	4	248	0.00	30.031 
23:20	32.4	32.4	32.4	58	19.3	1	4	248	0.00	30.031 
23:25	32.4	32.4	32.4	58	19.3	1	5	248	0.00	30.031 
23:30	32.2	32.2	32.2	58	19.1	1	5	225	0.00	30.024 
23:35	32.2	32.2	32.2	58	19.1	1	3	248	0.00	30.024 
23:40	32.2	32.2	32.2	58	19.1	1	5	248	0.00	30.024 
23:45	32.2	32.2	32.2	58	19.1	1	6	248	0.00	30.021 
23:50	32.4	32.4	32.4	58	19.3	1	3	248	0.00	30.021 
23:55	32.4	32.4	32.4	58	19.3	1	4	248	0.00	30.021 

CoCoRaHS
IN-AL-39
A2 Web Hosting
Creative Commons License
GoDaddy
search engine by freefind advanced

loaded 2018-11-19 10:37:20 • last modified 2010-11-18 10:43:29
Privacy PolicyDisclaimer
• wx.awcolley.com is powered by PmWiki v.2002016 •
• all content (unless otherwise noted) © 2018 A W Colley